This is the latest recevied weather packets stored in our database for station/object SV2BZQ-1. If no packets are shown the sender has not sent any weather packets the latest 1 day(s).
| Time | Temp. | Humidity | Pressure | Rain* | Wind** | Luminosity | Snow |
|---|---|---|---|---|---|---|---|
| 1778049150 | 17.78° C | 72% | 1014.8 hPa | 0 mm | 1.79 m/s, 0° | - | - |
| 1778049022 | 17.78° C | 72% | 1014.8 hPa | 0 mm | 1.79 m/s, 23° | - | - |
| 1778048925 | 17.78° C | 72% | 1014.8 hPa | 0 mm | 1.79 m/s, 32° | - | - |
| 1778048737 | 17.78° C | 72% | 1014.8 hPa | 0 mm | 1.79 m/s, 28° | - | - |
| 1778048619 | 17.22° C | 72% | 1014.8 hPa | 0 mm | 1.79 m/s, 356° | - | - |
| 1778048509 | 17.78° C | 72% | 1014.8 hPa | 0 mm | 1.79 m/s, 49° | - | - |
| 1778048377 | 17.78° C | 73% | 1014.8 hPa | 0 mm | 1.79 m/s, 10° | - | - |
| 1778048258 | 17.78° C | 73% | 1014.8 hPa | 0 mm | 1.34 m/s, 20° | - | - |
| 1778048139 | 17.78° C | 73% | 1014.8 hPa | 0 mm | 1.79 m/s, 25° | - | - |
| 1778048023 | 17.22° C | 74% | 1014.8 hPa | 0 mm | 1.79 m/s, 18° | - | - |
| 1778047901 | 17.22° C | 74% | 1014.8 hPa | 0 mm | 1.79 m/s, 337° | - | - |
| 1778047785 | 17.22° C | 74% | 1014.8 hPa | 0 mm | 1.79 m/s, 10° | - | - |
| 1778047662 | 17.22° C | 73% | 1014.8 hPa | 0 mm | 1.79 m/s, 25° | - | - |
| 1778047546 | 17.22° C | 74% | 1014.8 hPa | 0 mm | 1.79 m/s, 41° | - | - |
| 1778047425 | 17.22° C | 74% | 1014.8 hPa | 0 mm | 1.79 m/s, 30° | - | - |
| 1778047325 | 17.22° C | 74% | 1014.8 hPa | 0 mm | 1.79 m/s, 35° | - | - |
| 1778047220 | 17.22° C | 74% | 1014.8 hPa | 0 mm | 1.79 m/s, 32° | - | - |
| 1778047114 | 17.22° C | 74% | 1014.8 hPa | 0 mm | 2.24 m/s, 356° | - | - |
| 1778046950 | 17.22° C | 74% | 1014.8 hPa | 0 mm | 1.79 m/s, 35° | - | - |
| 1778046818 | 17.22° C | 74% | 1014.8 hPa | 0 mm | 1.79 m/s, 47° | - | - |
| 1778046704 | 17.22° C | 74% | 1014.8 hPa | 0 mm | 1.34 m/s, 11° | - | - |
| 1778046569 | 17.22° C | 74% | 1014.8 hPa | 0 mm | 1.34 m/s, 31° | - | - |
| 1778046470 | 17.22° C | 74% | 1014.8 hPa | 0 mm | 0.89 m/s, 6° | - | - |
| 1778046359 | 17.22° C | 74% | 1014.8 hPa | 0 mm | 1.34 m/s, 3° | - | - |
| 1778046276 | 17.22° C | 74% | 1014.6 hPa | 0 mm | 1.34 m/s, 10° | - | - |
* Rain latest hour (hover to see other rain measurements)
** Current wind speed in m/s (hover to see current wind gust speed)